EHI
0 0 0 0 0 0 0 0 1 1 1 0 1 5 8 9 6 4 8 21 37 35 24 24 27 22 12 6 3 2 0 0 0 0 0 0 0 0 0 0 0 0 0 0 0 0 0 0 0
0 0 0 0 0 0 0 1 2 2 1 0 2 5 8 8 7 8 13 24 33 29 21 23 28 24 15 9 6 3 1 0 0 0 0 0 0 0 0 0 0 0 0 0 0 0 0 0 0
0 0 0 0 0 0 0 1 2 1 1 1 4 7 7 7 8 12 17 23 26 22 19 24 29 26 18 12 9 5 2 0 0 0 0 0 0 0 0 0 0 0 0 0 0 0 0 0 0
0 0 0 0 0 0 1 1 1 1 1 3 9 13 12 8 10 13 15 19 20 20 20 24 30 28 19 11 9 6 3 1 1 0 0 0 0 0 0 0 0 0 0 0 0 0 0 0 0
0 0 0 0 0 0 1 1 2 3 4 7 16 26 22 13 12 11 11 15 21 24 22 24 31 29 18 10 7 6 4 2 2 1 0 0 0 0 0 0 0 0 0 0 1 0 0 0 0
0 0 0 0 0 1 1 2 3 4 6 12 23 31 27 17 13 11 12 18 27 30 25 23 27 25 17 11 7 5 4 3 3 2 2 1 0 0 0 1 0 0 0 0 1 1 1 0 0
0 0 0 0 1 3 3 2 3 5 9 14 22 28 26 21 17 15 17 23 31 32 26 20 18 17 15 11 8 5 4 5 4 3 2 1 0 0 0 1 1 1 1 1 2 2 2 1 0
0 0 0 0 2 4 5 4 4 8 12 16 23 27 29 28 23 21 23 27 31 31 25 17 13 12 12 10 9 7 7 8 5 2 1 1 0 0 1 3 3 4 4 3 2 2 2 2 1
0 0 0 0 2 4 5 5 6 10 15 22 31 36 37 34 29 27 29 30 31 29 23 16 13 12 11 10 10 10 9 9 6 3 2 2 1 1 3 7 12 11 7 5 4 3 3 3 1
0 0 0 1 2 3 3 5 7 10 17 28 36 41 39 34 31 32 33 34 32 28 22 16 14 13 13 12 12 10 9 9 7 5 5 4 3 3 6 15 23 19 11 7 6 6 5 4 3
0 0 0 1 2 2 3 5 8 12 20 28 32 33 32 30 30 33 37 37 35 29 23 19 17 18 21 22 17 12 12 13 10 10 11 8 5 5 10 20 25 21 13 9 9 10 9 7 7
0 0 1 1 2 2 4 7 11 16 23 27 26 25 27 29 31 35 39 41 39 33 27 24 26 30 38 40 31 22 22 21 19 20 18 14 11 9 13 22 24 18 12 10 13 15 14 13 12
0 0 1 1 2 3 5 9 14 18 23 25 24 23 27 33 36 40 45 47 45 39 34 34 40 47 53 54 46 37 34 31 31 31 27 20 18 16 15 21 25 20 14 12 16 18 19 20 19
0 0 1 1 2 3 5 8 14 18 20 23 25 24 29 36 42 47 52 53 52 48 45 46 52 57 58 54 49 43 40 38 39 38 32 25 22 20 17 18 24 24 17 15 18 20 21 23 24
0 0 0 1 1 2 4 8 13 17 19 24 28 29 33 40 46 52 57 58 58 57 55 52 52 54 52 46 43 43 42 40 40 39 34 28 23 20 16 14 18 20 17 17 20 21 22 22 22
0 0 0 0 0 1 4 8 13 17 19 24 30 33 38 43 48 53 57 57 57 57 56 51 47 48 48 44 44 45 44 41 39 38 34 27 22 17 13 11 12 14 14 15 17 20 23 22 20
0 0 0 0 0 0 3 8 13 16 17 22 29 34 38 42 46 50 52 52 53 53 53 49 46 47 48 47 48 48 46 43 39 36 33 27 21 15 11 10 10 12 13 12 14 20 24 24 22
0 0 0 0 0 0 3 8 13 14 15 19 27 32 34 38 43 47 48 47 48 50 50 46 44 46 47 48 49 48 46 41 37 34 32 28 21 15 12 11 12 14 13 11 13 17 21 22 22
0 0 0 0 0 1 4 8 11 13 14 20 26 29 31 34 40 45 47 45 43 45 46 44 42 43 46 48 49 48 44 39 34 33 32 29 24 18 13 13 15 16 14 12 12 13 15 15 15
0 0 0 0 0 1 5 8 10 13 16 21 25 28 30 34 40 46 47 44 43 43 43 43 42 42 45 48 48 45 41 36 32 31 31 28 24 19 16 15 16 16 14 12 12 11 11 10 9
0 0 0 0 0 1 3 5 9 13 17 20 26 30 31 34 41 47 47 44 44 44 43 42 41 42 43 44 42 40 36 31 28 28 29 25 21 19 18 16 14 13 13 13 12 11 9 9 9
0 0 0 0 0 0 1 3 7 14 18 20 24 27 29 32 39 44 44 42 43 43 42 41 40 39 40 38 37 35 32 27 24 25 25 22 19 19 19 16 13 11 11 11 10 8 8 8 8
0 0 0 0 0 0 0 1 6 14 20 21 22 24 25 30 35 38 37 37 39 40 40 39 38 36 36 35 34 33 30 26 22 21 22 20 18 17 17 16 13 10 9 9 8 7 6 6 6
0 0 0 0 0 0 0 2 6 13 18 21 24 26 27 30 33 33 32 34 35 35 36 36 36 34 33 32 31 30 28 24 19 19 19 17 15 14 12 12 10 8 7 8 7 6 5 5 5
0 0 0 0 0 0 0 2 6 10 14 21 27 32 32 31 31 31 31 34 34 33 34 35 34 32 30 28 27 26 23 20 16 14 14 12 10 9 8 7 6 5 5 6 6 4 4 4 4
0 0 0 0 0 0 0 3 7 10 16 22 29 33 32 29 29 30 31 33 33 32 33 32 30 27 24 21 21 21 20 17 13 10 9 7 6 5 4 4 3 2 2 4 4 4 3 3 3
0 0 0 0 0 0 0 2 5 10 18 26 30 32 28 25 26 28 29 31 31 30 29 28 26 21 17 15 16 16 16 14 11 8 6 5 5 3 2 2 2 1 2 4 5 4 3 3 3
0 0 0 0 0 0 0 1 3 8 16 25 28 28 26 24 25 25 25 28 28 26 25 24 21 16 12 11 12 11 11 10 9 9 7 6 6 5 3 3 2 2 3 4 4 4 3 2 1
0 0 0 0 0 0 0 1 4 9 16 22 25 25 24 24 24 24 24 26 25 22 20 19 17 13 9 8 9 9 8 7 8 9 7 6 6 5 4 3 3 3 2 2 2 1 1 1 0
0 0 0 0 0 0 0 1 6 12 17 21 24 25 24 23 23 23 25 25 22 17 16 16 14 11 8 6 7 8 7 7 8 8 7 6 6 5 4 3 3 3 2 1 0 0 0 0 0
Wind_Speed
9 12 11 8 8 8 10 7 4 8 9 10 11 11 16 14 10 10 10 15 20 18 15 14 12 12 11 11 11 11 10 10 9 8 8 7 7 7 6 6 6 5 5 5 5 5 5 4 4
11 13 10 8 9 8 8 5 5 8 12 11 10 11 15 14 13 12 12 16 19 18 15 14 13 12 12 11 11 11 10 10 9 8 8 7 6 6 5 5 4 4 4 4 4 4 4 3 3
12 16 9 9 12 9 6 5 7 11 10 9 10 11 11 10 12 11 13 16 18 16 16 15 14 13 12 12 11 10 10 9 9 8 7 6 6 5 4 4 4 3 3 3 3 3 3 2 2
9 9 8 10 12 9 6 4 7 10 9 8 10 11 11 8 10 13 15 16 17 17 17 15 14 13 12 11 11 10 9 9 8 7 7 6 5 4 4 3 3 3 2 2 2 2 1 1 1
10 8 11 12 11 8 5 3 6 7 8 9 12 13 12 11 14 15 14 15 16 17 16 15 14 13 12 11 10 10 9 8 7 7 6 5 4 4 3 3 2 2 2 2 1 1 1 1 2
9 9 12 12 10 8 6 5 4 5 6 10 14 13 9 11 13 13 13 13 15 16 16 14 13 13 11 11 10 9 8 7 7 6 5 5 4 3 3 3 2 2 2 2 2 2 2 2 3
11 11 13 14 9 6 6 7 6 6 5 7 10 12 10 11 11 12 12 13 15 16 14 11 11 11 11 10 9 8 8 7 6 5 5 4 4 4 4 4 3 3 2 2 3 3 3 3 4
11 11 15 12 8 5 6 5 5 6 6 6 8 11 12 13 12 12 12 12 14 14 12 10 10 9 9 9 9 9 8 7 6 5 5 4 4 5 5 5 5 4 4 4 4 4 4 5 5
14 13 12 10 7 5 6 8 7 7 7 8 9 13 16 17 14 12 11 11 11 12 10 9 9 9 8 9 9 9 8 6 6 5 5 4 4 5 6 7 7 6 6 6 6 6 6 6 7
12 11 12 7 3 3 4 6 9 9 10 12 14 16 16 14 14 13 12 11 11 11 9 8 8 8 7 6 7 5 5 5 5 4 4 4 4 4 4 5 7 7 7 7 8 8 8 7 5
11 11 8 4 3 0 2 2 4 7 8 12 16 17 15 13 12 11 11 10 10 9 8 8 8 6 5 5 5 4 3 4 4 3 3 3 3 2 1 2 3 4 6 5 6 6 5 5 4
10 8 6 3 2 2 3 4 4 6 9 14 16 17 16 14 12 10 10 9 9 8 7 6 7 6 5 4 3 3 2 3 2 2 2 1 2 2 1 1 2 2 2 3 3 3 5 4 3
10 7 4 3 3 5 3 4 5 7 10 15 16 15 15 13 12 10 10 9 9 7 6 5 5 5 4 3 1 2 2 2 2 2 1 1 1 2 2 1 1 2 2 2 2 3 3 2 3
7 6 5 7 6 4 5 5 5 9 10 13 14 12 12 13 12 11 9 9 8 7 5 5 6 5 4 3 1 2 1 1 1 2 1 1 1 2 2 2 2 2 2 2 2 3 2 2 2
6 6 7 8 7 7 7 6 5 9 10 11 12 11 10 10 10 10 9 8 8 7 6 5 6 5 3 2 1 2 1 1 1 1 1 1 2 2 3 2 2 2 3 2 2 3 2 2 3
8 9 9 9 9 9 9 6 7 6 10 10 10 11 11 10 8 8 9 8 7 6 6 4 4 5 3 2 1 1 1 1 1 1 1 1 2 2 2 2 2 3 2 1 2 2 2 2 2
9 10 11 8 10 9 9 6 8 8 7 10 10 10 11 10 8 8 8 7 6 6 5 4 3 4 3 2 2 1 2 1 1 1 1 1 1 2 2 2 2 3 2 2 3 1 2 2 2
7 7 9 7 8 10 8 6 10 12 12 11 10 9 10 10 9 9 9 8 6 6 5 4 4 4 3 2 1 1 2 1 1 1 1 1 1 2 2 2 2 2 2 2 2 2 2 2 2
5 7 8 6 6 8 7 7 8 10 10 10 12 12 10 10 11 10 9 8 7 6 5 4 4 3 2 1 1 1 1 1 1 1 1 1 1 2 2 2 2 2 2 1 2 2 3 2 1
5 6 8 6 5 6 6 6 6 8 9 10 10 10 12 12 11 11 9 8 7 6 5 4 3 3 2 1 1 1 1 0 1 1 2 1 1 1 2 1 2 2 2 2 2 2 2 2 1
8 7 9 5 5 7 7 7 7 8 8 8 9 9 10 12 13 11 9 8 7 6 4 4 3 2 2 2 2 1 1 1 0 1 1 0 1 1 1 2 2 2 2 1 2 1 2 3 2
7 6 7 6 7 8 8 7 7 7 7 7 7 8 8 8 11 11 10 8 7 6 6 5 4 3 3 2 2 1 1 1 0 0 1 1 1 1 1 1 1 2 2 2 3 2 2 3 3
7 7 7 9 10 10 8 9 5 5 7 6 7 9 9 9 11 10 9 8 7 7 6 5 5 4 3 2 2 1 1 1 1 1 1 1 1 1 1 1 2 2 1 2 2 2 3 2 3
8 9 10 11 10 10 7 7 3 4 6 7 6 6 9 9 10 10 9 8 7 7 6 6 5 4 3 3 2 2 2 1 1 1 1 1 0 1 1 2 2 2 2 2 2 2 3 3 3
8 8 7 6 6 7 6 6 2 2 5 7 9 8 8 9 8 8 9 9 8 7 6 6 6 4 3 3 2 2 1 0 0 1 1 2 1 1 2 2 1 2 2 2 2 2 2 3 3
8 9 7 6 8 8 5 4 2 3 5 7 9 9 10 10 8 8 8 7 7 7 6 6 6 4 3 3 2 2 1 1 1 1 1 1 1 1 1 1 1 2 3 3 2 2 2 2 3
8 9 8 7 10 9 6 1 1 3 4 6 9 10 9 8 8 8 8 7 7 6 6 6 5 4 3 3 3 2 1 1 1 1 1 1 2 2 2 2 2 2 3 3 3 2 2 2 3
9 7 5 5 6 8 8 5 2 3 4 6 7 7 8 8 8 7 7 8 7 6 6 6 5 4 3 3 2 2 1 1 1 1 2 2 2 2 2 2 3 3 3 2 3 2 2 2 2
8 7 7 6 6 7 6 3 1 3 5 5 6 7 8 7 8 8 6 7 7 6 6 5 4 4 3 2 2 2 2 1 1 1 1 1 2 2 2 2 2 3 2 2 2 2 2 2 2
7 7 7 7 7 8 7 1 2 2 5 6 6 7 8 7 7 7 7 7 6 6 5 5 4 3 2 2 2 2 2 1 1 2 2 1 1 2 2 2 3 3 2 2 2 3 3 2 3
Wind_Direction
263 255 241 245 241 241 252 238 149 109 90 78 69 69 73 60 71 98 122 116 111 116 121 117 114 119 123 128 130 131 131 131 129 126 122 117 114 107 101 98 96 92 91 92 93 92 90 89 87
268 257 242 243 245 241 243 195 117 100 96 95 86 82 80 77 85 109 117 115 117 121 126 119 116 117 122 125 127 130 133 133 132 130 127 124 121 115 109 104 101 98 97 97 96 94 92 95 96
263 261 251 241 243 247 252 124 121 110 104 108 92 75 70 84 99 111 118 123 120 124 120 117 119 118 120 124 127 130 134 134 133 133 131 130 130 127 123 118 111 106 105 107 106 99 98 101 105
249 232 237 246 244 237 243 127 122 114 117 115 104 88 84 80 107 120 131 129 125 124 119 122 122 121 121 125 128 130 133 134 136 137 136 135 134 133 133 130 129 125 123 127 127 120 125 131 147
240 245 236 245 242 231 193 125 117 128 134 116 101 95 88 90 110 123 133 126 123 120 120 125 123 123 124 127 128 130 132 135 138 140 141 140 138 136 137 144 149 148 149 155 159 166 198 227 242
230 236 241 246 236 217 164 123 129 126 120 112 106 104 91 110 120 130 129 120 117 117 120 126 127 127 128 129 129 131 133 137 139 141 144 147 151 158 163 163 162 169 183 193 195 200 226 248 259
246 253 254 253 242 212 140 138 159 142 123 112 114 108 121 130 130 132 125 120 116 116 121 133 136 136 136 134 134 136 137 139 143 146 152 163 174 183 187 185 181 188 198 213 224 231 240 247 257
248 269 267 262 252 224 146 157 147 120 107 100 107 121 140 140 139 132 125 120 117 118 127 137 143 143 149 149 148 149 147 150 154 162 173 183 191 198 205 199 198 203 209 222 231 237 244 250 255
244 258 263 258 238 209 160 156 134 117 115 86 81 109 134 141 141 136 132 126 123 124 133 143 146 150 160 157 152 156 157 163 169 178 193 203 215 211 208 217 193 206 219 230 235 237 245 250 250
234 250 263 278 271 206 166 158 149 149 130 102 91 99 123 142 144 146 141 139 135 134 140 146 143 150 160 150 144 162 170 168 191 188 190 214 232 234 222 186 189 206 223 235 239 242 246 243 246
235 255 280 302 308 43 165 175 163 149 133 126 125 132 143 152 152 151 144 142 137 137 144 145 142 147 143 133 150 168 176 164 198 199 192 227 247 247 189 163 182 210 226 233 232 231 237 234 233
238 263 286 284 11 289 205 185 162 122 123 129 133 143 154 157 151 146 138 134 135 139 144 134 132 131 118 127 152 154 151 157 176 159 207 254 274 283 260 207 193 214 227 235 231 229 236 241 244
235 242 250 278 240 240 216 184 138 121 121 130 136 150 155 150 147 140 135 134 133 136 135 122 113 105 103 106 134 126 117 139 138 134 162 271 271 301 309 289 271 263 256 244 253 243 255 263 272
236 229 220 224 218 199 206 196 160 125 121 130 139 148 151 147 146 142 140 136 133 132 127 115 108 105 100 97 81 88 110 130 97 95 80 314 320 306 300 291 284 288 286 266 264 274 274 268 270
251 229 221 220 206 202 202 196 152 131 132 139 143 144 147 141 143 139 133 132 132 130 127 124 125 116 113 114 141 108 86 79 78 81 58 9 327 303 295 293 287 290 285 284 283 278 276 270 269
232 229 227 223 215 208 209 200 139 136 148 155 153 146 143 134 133 128 126 126 129 130 127 129 136 126 129 125 97 86 79 82 73 79 61 356 322 318 307 304 305 295 291 289 280 284 295 292 292
226 231 232 214 206 212 210 188 157 149 173 169 155 144 146 140 138 131 127 127 128 124 122 123 112 116 123 119 111 101 89 73 62 79 70 10 329 320 309 296 300 298 302 305 297 326 311 297 288
239 244 242 222 200 221 211 189 172 174 184 169 153 156 156 153 145 140 135 132 127 123 122 128 124 111 112 114 125 123 115 114 110 75 62 38 329 320 316 301 307 310 317 314 313 318 301 285 282
268 259 256 247 209 231 215 198 188 185 184 169 167 171 164 154 148 145 139 137 133 128 130 132 125 119 124 133 158 155 136 137 116 119 95 40 335 327 314 317 319 317 308 306 310 307 295 282 280
269 262 257 234 214 235 232 222 204 189 191 180 177 174 162 154 149 144 143 139 134 129 131 136 131 136 150 137 137 134 110 79 99 60 78 55 5 337 330 330 315 325 313 313 305 306 297 292 278
265 256 259 256 230 233 243 241 217 200 200 191 176 170 165 160 152 147 147 143 140 135 134 130 126 126 125 125 134 123 124 136 106 118 106 42 357 4 342 336 319 322 309 322 311 319 298 294 282
268 265 266 258 256 252 240 251 217 198 195 192 178 167 166 156 145 147 150 147 144 141 135 121 112 104 103 111 115 141 140 146 129 75 81 33 360 344 356 333 338 346 339 339 317 347 317 304 297
290 287 273 267 260 264 259 261 229 181 184 189 182 175 162 153 143 148 149 147 140 134 129 123 115 110 105 110 109 100 69 50 51 41 45 358 332 331 16 3 8 355 346 341 326 326 320 313 310
291 285 274 264 258 254 264 268 251 195 177 175 163 166 147 143 142 145 143 138 133 131 130 128 124 119 113 110 108 102 94 53 21 355 356 314 289 322 25 17 7 337 324 320 320 322 318 315 314
273 276 272 272 269 269 281 270 239 161 154 160 159 156 138 131 136 144 143 142 141 136 131 130 130 126 122 113 98 91 94 148 340 324 326 333 339 9 25 9 349 326 311 315 322 319 312 314 317
269 270 274 288 292 297 264 234 165 135 139 148 142 139 132 135 140 144 143 141 136 131 131 133 129 128 125 111 98 88 66 28 22 8 352 345 350 3 354 334 341 322 319 328 325 314 311 329 322
267 268 281 287 287 287 284 195 80 72 84 101 118 126 130 136 142 147 137 130 129 132 134 132 125 121 119 117 118 117 101 53 25 359 344 3 352 350 345 338 344 338 333 334 329 318 339 344 332
266 281 302 287 285 286 290 292 216 191 174 140 130 132 129 129 130 130 131 131 131 126 121 118 122 124 119 114 117 106 103 84 35 -0 14 15 7 357 328 332 332 325 325 330 327 323 339 339 329
271 274 280 273 279 287 281 303 132 190 157 140 139 133 130 133 134 130 130 133 135 134 136 134 133 128 125 115 96 76 70 51 25 36 23 13 1 327 314 320 314 313 326 338 327 315 322 327 331
283 285 283 285 286 284 290 314 107 143 136 130 132 125 126 126 126 130 132 134 142 142 142 140 134 124 116 107 100 88 70 53 35 34 20 350 328 313 323 319 319 318 334 339 334 334 341 342 346